This is the latest recevied weather packets stored in our database for station/object WX0ABE-13. If no packets are shown the sender has not sent any weather packets the latest 10 day(s).
| Time | Temp. | Humidity | Pressure | Rain* | Wind** | Luminosity | Snow |
|---|---|---|---|---|---|---|---|
| 1788361707 | 21.67° C | 64% | 1017 hPa | 0 mm | - | 113 W/m² | - |
| 1788361403 | 21.11° C | 67% | 1017 hPa | 0 mm | - | 101 W/m² | - |
| 1788361103 | 21.11° C | 68% | 1017 hPa | 0 mm | - | 162 W/m² | - |
| 1788360798 | 20.56° C | 67% | 1017 hPa | 0 mm | - | 90 W/m² | - |
| 1788360494 | 20.56° C | 66% | 1016.7 hPa | 0 mm | - | 82 W/m² | - |
| 1788360189 | 20.56° C | 67% | 1016.7 hPa | 0 mm | - | 106 W/m² | - |
| 1788359884 | 20° C | 70% | 1016.8 hPa | 0 mm | - | 115 W/m² | - |
| 1788359579 | 20° C | 70% | 1017 hPa | 0 mm | - | 108 W/m² | - |
| 1788359275 | 20° C | 70% | 1017 hPa | 0 mm | - | 101 W/m² | - |
| 1788358970 | 19.44° C | 71% | 1016.8 hPa | 0 mm | - | 116 W/m² | - |
| 1788358670 | 19.44° C | 73% | 1016.7 hPa | 0 mm | - | 120 W/m² | - |
| 1788358361 | 18.89° C | 73% | 1017 hPa | 0 mm | - | 96 W/m² | - |
| 1788358061 | 18.89° C | 74% | 1016.7 hPa | 0 mm | - | 72 W/m² | - |
| 1788357756 | 18.33° C | 75% | 1016.8 hPa | 0 mm | - | 72 W/m² | - |
| 1788357454 | 18.33° C | 74% | 1016.8 hPa | 0 mm | - | 85 W/m² | - |
| 1788357150 | 17.78° C | 79% | 1016.7 hPa | 0 mm | - | 96 W/m² | - |
| 1788356850 | 17.22° C | 80% | 1017 hPa | 0 mm | - | 66 W/m² | - |
| 1788356545 | 17.22° C | 81% | 1016.8 hPa | 0 mm | - | 41 W/m² | - |
| 1788356241 | 17.22° C | 80% | 1016.6 hPa | 0 mm | - | 30 W/m² | - |
| 1788355940 | 17.22° C | 80% | 1016.7 hPa | 0 mm | - | 34 W/m² | - |
| 1788355635 | 17.22° C | 79% | 1016.7 hPa | 0 mm | - | 26 W/m² | - |
| 1788355331 | 17.78° C | 78% | 1016.7 hPa | 0 mm | - | 25 W/m² | - |
| 1788355026 | 17.22° C | 78% | 1016.5 hPa | 0 mm | - | 24 W/m² | - |
| 1788354722 | 16.67° C | 81% | 1016.5 hPa | 0 mm | - | 23 W/m² | - |
| 1788354417 | 16.11° C | 83% | 1016.4 hPa | 0 mm | - | 22 W/m² | - |
* Rain latest hour (hover to see other rain measurements)
** Current wind speed in m/s (hover to see current wind gust speed)